AO-07 1 07530U 74089B 26263.26207443 -.00000044 00000-0 15605-4 0 9990 2 07530 101.9920 277.5023 0011995 311.0066 111.4428 12.53699609372437 UO-11 1 14781U 84021B 26263.45779620 .00001031 00000-0 10996-3 0 9998 2 14781 97.8182 228.0399 0006429 220.8045 139.2693 14.91001989271323 LO-19 1 20442U 90005G 26263.34560516 .00000042 00000-0 31728-4 0 9996 2 20442 98.8820 287.7586 0010499 288.7564 71.2481 14.34144744916033 AO-27 1 22825U 93061C 26263.16552080 .00000029 00000-0 28062-4 0 9997 2 22825 98.6789 330.5008 0008483 174.2728 185.8553 14.30962074720584 FO-29 1 24278U 96046B 26263.46310107 .00000004 00000-0 40513-4 0 9990 2 24278 98.5163 99.2721 0349370 209.0394 149.0910 13.53278362486057 GO-32 1 25397U 98043D 26263.45383155 .00000021 00000-0 29191-4 0 9992 2 25397 99.0159 258.6540 0000735 359.3755 0.7421 14.24443467464897 ISS 1 25544U 98067A 26263.52959654 .00008422 00000-0 15975-3 0 9990 2 25544 51.6308 188.2246 0004826 162.2847 197.8311 15.49196792586536 NO-44 1 26931U 01043C 26263.56710779 .00000034 00000-0 43518-4 0 9992 2 26931 67.0532 357.5693 0005843 272.9982 87.0452 14.31985094304101 SO-50 1 27607U 02058C 26263.29660453 .00000587 00000-0 86947-4 0 9999 2 27607 64.5524 194.6776 0071671 244.9843 114.3809 14.83220028278560 CO-55 1 27844U 03031E 26262.30825485 .00000177 00000-0 95427-4 0 9991 2 27844 98.6773 269.7000 0008370 273.0739 86.9482 14.24383016205073 RS-22 1 27939U 03042A 26263.62305421 .00000298 00000-0 54096-4 0 9998 2 27939 98.3484 90.7080 0010734 332.3379 117.2831 14.73605264229607 CO-65 1 32785U 08021C 26263.61626137 .00003184 00000-0 19883-3 0 9995 2 32785 97.8388 247.1294 0010377 68.5405 291.6930 15.10204823999592 CO-66 1 32791U 08021J 26262.96547176 .00014057 00000-0 40691-3 0 9996 2 32791 97.7577 265.6353 0002394 30.6292 329.5090 15.35713894 1810 RS-30 1 32953U 08025A 26263.54548266 .00000007 00000-0 -20595-4 0 9999 2 32953 82.5014 296.1320 0020730 103.3174 257.0219 12.43182929831546 SRMSAT 1 37841U 11058D 26263.01817207 .00000357 00000-0 49981-4 0 9993 2 37841 19.9709 205.4664 0011868 166.7244 270.3270 14.11593351771235 ZACUBE-1 1 39417U 13066B 26263.43947617 .00003304 00000-0 25399-3 0 9991 2 39417 97.8156 226.2777 0038938 294.1812 65.5344 15.01848178695025 Delfi-N3xt 1 39428U 13066N 26263.51610990 .00003879 00000-0 33299-3 0 9998 2 39428 97.8284 183.7838 0071246 248.9030 110.4563 14.96131048688874 GOMX-1 1 39430U 13066Q 26263.50877128 .00001308 00000-0 20060-3 0 9995 2 39430 97.6441 97.9640 0128935 130.6160 230.6348 14.69710556683919 LO-74 1 39440U 13066AA 26263.43316356 .00002169 00000-0 20087-3 0 9994 2 39440 97.8991 212.8916 0058599 71.8259 288.9329 14.94296492691212 AO-73 1 39444U 13066AE 26263.47588428 .00005184 00000-0 31342-3 0 9999 2 39444 97.8392 237.0499 0033818 237.8225 121.9723 15.10646885694042 DTUSAT-2 1 40030U 14033W 26262.98142673 .00004216 00000-0 22294-3 0 9991 2 40030 98.0927 266.8360 0006024 272.2482 87.8059 15.16068449667048 LILACSAT-2 1 40908U 15049K 26263.63605877 .00013696 00000-0 20987-3 0 9995 2 40908 97.4558 304.2636 0004631 256.8827 103.1910 15.54447124610567 Lapan A3 1 41603U 16040E 26263.59837463 .00002424 00000-0 76762-4 0 9993 2 41603 97.1574 256.6854 0011298 41.5524 318.6576 15.33625911569436 CAS-2T 1 41847U 16066G 26263.46500916 .00000852 00000-0 12847-3 0 9993 2 41847 98.3748 338.1016 0340838 200.2253 158.5161 14.44850780518559 TechnoSat 1 42829U 17042E 26263.24677139 .00002839 00000-0 20125-3 0 9992 2 42829 97.4407 57.3918 0018468 127.0932 233.1986 15.05426476501000 AO-91 1 43017U 17073E 26262.89417123 .00006111 00000-0 26021-3 0 9999 2 43017 97.4551 128.1747 0147209 1.9522 358.2253 15.13974742479719 S-Net D 1 43186U 18014G 26263.24465014 .00002889 00000-0 14776-3 0 9996 2 43186 97.5248 167.4344 0009542 56.2724 303.9417 15.17415737473174 S-Net B 1 43187U 18014H 26263.19209607 .00002915 00000-0 14918-3 0 9993 2 43187 97.5253 167.3715 0010124 51.8522 308.3622 15.17383788473163 S-Net A 1 43188U 18014J 26263.50677762 .00003076 00000-0 15708-3 0 9997 2 43188 97.5264 167.9117 0009972 51.5579 308.6548 15.17426071473215 S-Net C 1 43189U 18014K 26263.26249760 .00002996 00000-0 15323-3 0 9997 2 43189 97.5281 167.7582 0011149 45.0249 315.1887 15.17374736471723 Ten-Koh 1 43677U 18084G 26263.45195602 .00000745 00000-0 59879-4 0 9997 2 43677 98.0716 99.8462 0009837 152.1286 208.0467 15.03253631430474 PO-101 1 43678U 18084H 26263.58970030 .00001075 00000-0 89930-4 0 9996 2 43678 98.1173 103.9983 0012008 208.6707 151.3857 15.00740187430520 QO-100 1 43700U 18090A 26263.21122752 .00000000 00000-0 00000-0 0 9993 2 43700 0.0230 171.5231 0001219 346.4463 302.9563 1.00269756 28637 MinXSS-2 1 43758U 18099A 26263.56015339 .00036081 00000-0 56396-3 0 9995 2 43758 97.4443 343.0643 0005509 265.8663 94.1960 15.53690679428901 AO-95 1 43770U 18099N 26263.12239025 .00007863 00000-0 28592-3 0 9994 2 43770 97.4285 323.0885 0008479 22.9515 337.2102 15.28501039427712 SNUSat 2 1 43782U 18099AA 26261.13610748 .00004914 00000-0 21133-3 0 9999 2 43782 97.3962 313.1241 0009052 338.1889 21.8961 15.23071167427174 SnugLite 1 43784U 18099AC 26263.42075623 .00007372 00000-0 26486-3 0 9999 2 43784 97.3771 316.8340 0001618 346.1686 13.9509 15.28944535427867 ITASat 1 1 43786U 18099AE 26263.30604079 .00004099 00000-0 19271-3 0 9998 2 43786 97.3933 312.9360 0012755 27.4941 332.6967 15.20070306427356 EAGLET 1 1 43790U 18099AJ 26263.40478797 .00002550 00000-0 14571-3 0 9998 2 43790 97.4138 310.5396 0011489 24.8119 335.3663 15.13537608426732 ESEO 1 43792U 18099AL 26263.09719877 .00000995 00000-0 75187-4 0 9994 2 43792 97.3909 296.3985 0012286 17.7578 342.4076 15.04480750426079 JO-97 1 43803U 18099AX 26262.41966991 .00012286 00000-0 34786-3 0 9998 2 43803 97.4022 325.7200 0003854 296.9693 63.1158 15.36423222428083 Suomi 100 1 43804U 18099AY 26263.40058406 .00008288 00000-0 28435-3 0 9993 2 43804 97.4088 323.5222 0008064 307.2020 52.8484 15.30386210427977 ISAT 1 43879U 18111D 26262.10681972 .00593785 16054-3 11229-2 0 9998 2 43879 97.5724 206.3379 0009429 140.9659 219.2301 16.00711699425970 UWE-4 1 43880U 18111E 26260.79047191 .00032620 00000-0 54348-3 0 9999 2 43880 97.5815 193.8360 0006557 15.6860 344.4594 15.51924947425112 Prox-1 1 44339U 19036A 26263.51787492 .00010543 00000-0 97145-3 0 9996 2 44339 23.9933 196.4268 0005488 65.1311 294.9759 14.92602999387725 Taurus 1 1 44530U 19059C 26263.57716243 .00003558 00000-0 56333-3 0 9998 2 44530 98.6504 74.4444 0008646 18.9308 341.2217 14.72926479372687 TO-108 1 44881U 19093C 26263.62457552 .00000852 00000-0 10184-3 0 9994 2 44881 97.7446 333.4924 0014595 128.4973 231.7554 14.86640057365596 RS-44 1 44909U 19096E 26263.46213625 .00000024 00000-0 58403-4 0 9999 2 44909 82.5167 276.3954 0216347 281.6877 76.0021 12.79749407314537 SALSAT 1 46495U 20068K 26263.27889389 .00005107 00000-0 17335-3 0 9992 2 46495 97.8892 272.2406 0008561 338.9521 21.1366 15.30980168329900 CSS (TIANHE-1) 1 48274U 21035A 26263.60227583 .00014670 00000-0 17915-3 0 9992 2 48274 41.4678 102.6603 0002547 294.4232 65.6341 15.60135710308060 TeikyoSat 4 1 49396U 21102B 26263.30212383 .00001113 00000-0 72615-4 0 9999 2 49396 97.3626 289.0805 0011098 333.0261 27.0390 15.09784484267078 Z-Sat 1 49399U 21102E 26263.61065911 .00002966 00000-0 14510-3 0 9995 2 49399 97.3268 296.0425 0014534 274.7072 85.2502 15.18882450267925 KOSEN 1 1 49402U 21102H 26263.39475012 .00004799 00000-0 17811-3 0 9995 2 49402 97.3104 303.7357 0012041 224.4616 135.5658 15.27988512268553 HO-113 1 50466U 21131B 26263.57289991 .00000348 00000-0 12090-3 0 9998 2 50466 98.4967 355.4428 0004468 156.8203 203.3189 14.41429066248854 SNUGLITE 2 1 52899U 22065F 26263.21050170 .00000593 00000-0 12105-3 0 9992 2 52899 98.2342 47.9569 0008687 86.9044 273.3153 14.64491944224900 UmKA 1 (RS40S) 1 57172U 23091G 26263.59992125 .00003763 00000-0 16892-3 0 9996 2 57172 97.4952 321.9390 0013507 141.1158 219.1053 15.21722412178514 CubeBel-2 (EU11S) 1 57175U 23091K 26263.59103232 .00009292 00000-0 31048-3 0 9995 2 57175 97.4953 327.7522 0010513 132.0840 228.1297 15.31191328178898 RS-38S 1 57189U 23091Z 26263.56392411 .00013366 00000-0 35037-3 0 9995 2 57189 97.5001 335.1062 0008016 91.7405 268.4758 15.38773061179340 SONATE-2 1 59112U 24043Q 26263.18449285 .00045310 00000-0 43676-3 0 9993 2 59112 97.5624 60.0165 0005401 207.1016 152.9962 15.66376204142728 GRBBeta 1 60237U 24128C 26263.37380526 .00002088 00000-0 15133-3 0 9992 2 60237 61.9884 242.1526 0026667 155.5743 204.6621 15.07199001120619 Curium One 1 60242U 24128H 26263.46331312 .00004552 00000-0 26221-3 0 9995 2 60242 61.9773 228.0047 0025895 149.7466 210.5132 15.13678729120879 ROBUSTA-3A 1 60243U 24128J 26263.21918786 .00003765 00000-0 22452-3 0 9992 2 60243 61.9848 231.8835 0027915 146.8489 213.4363 15.12757014120791 CatSat 1 60246U 24125J 26263.34349612 .00102789 00000-0 75226-3 0 9995 2 60246 97.1934 117.9372 0015308 177.1617 182.9737 15.72731213122273 AO-123 1 61781U 24199AY 26263.58576630 .00005655 00000-0 15858-3 0 9998 2 61781 97.2840 131.4016 0012449 333.4040 26.6565 15.36912008148578 LASARsat 1 62391U 24247Q 26262.82201670 .00033498 00000-0 53930-3 0 9994 2 62391 44.9718 88.0673 0009767 232.1281 127.8728 15.52377278 97992 CroCube 1 62394U 24247T 26263.18876308 .00039307 00000-0 56570-3 0 9991 2 62394 44.9694 81.3716 0010454 243.9717 116.0101 15.55383057 98105 JINJUSat 1B 1 63210U 25052A 26263.26306636 .00012686 00000-0 36134-3 0 9990 2 63210 97.3860 160.2643 0005232 97.7669 262.4169 15.36221984 84682 NUSHSAT 1 1 63211U 25052B 26263.26102099 .00016632 00000-0 42585-3 0 9990 2 63211 97.3831 161.2068 0005004 99.9164 260.2647 15.39461537 84752 TEVEL2-4 1 63213U 25052D 26263.21936969 .00014223 00000-0 38600-3 0 9995 2 63213 97.3755 159.9100 0004505 109.0590 251.1143 15.37703937 84707 TEVEL2-5 1 63214U 25052E 26263.25216108 .00014186 00000-0 38782-3 0 9995 2 63214 97.3755 159.8605 0004368 110.2555 249.9160 15.37476873 84709 TEVEL2-6 1 63215U 25052F 26263.46184648 .00014212 00000-0 38886-3 0 9997 2 63215 97.3757 160.0562 0004306 110.5150 249.6557 15.37451961 84735 TEVEL2-1 1 63217U 25052H 26263.52750684 .00013997 00000-0 39110-3 0 9995 2 63217 97.3730 159.6241 0004291 119.4603 240.7070 15.36801986 84726 TEVEL2-3 1 63218U 25052J 26263.51798915 .00014068 00000-0 39209-3 0 9993 2 63218 97.3733 159.6517 0004032 119.3550 240.8098 15.36879949 84724 TEVEL2-2 1 63219U 25052K 26263.52707025 .00014006 00000-0 39116-3 0 9996 2 63219 97.3731 159.6282 0004307 119.9709 240.1963 15.36816644 84726 TEVEL2-9 1 63237U 25052AD 26263.43953344 .00012030 00000-0 36111-3 0 9990 2 63237 97.3791 158.6914 0006841 144.4385 215.7315 15.34573559 84622 TEVEL2-7 1 63238U 25052AE 26263.24006731 .00011372 00000-0 34556-3 0 9998 2 63238 97.3793 158.3628 0006719 146.4100 213.7571 15.34200015 84586 TEVEL2-8 1 63239U 25052AF 26263.24910583 .00011754 00000-0 35717-3 0 9992 2 63239 97.3792 158.3465 0006805 145.1781 214.9908 15.34190183 84583 SPIRONE 1 66657U 25274H 26263.44597022 .00001036 00000-0 10277-3 0 9992 2 66657 97.7484 191.3935 0013458 60.5566 299.6995 14.93858997 44449 K-HERO 1 66660U 25274L 26261.54984893 .00001759 00000-0 16893-3 0 9993 2 66660 97.7491 189.7520 0015417 69.9156 290.3722 14.94248246 44174 SNUGLITE-III DURI 1 66661U 25274M 26263.54517659 .00001425 00000-0 13789-3 0 9999 2 66661 97.7489 191.7414 0015970 64.8441 295.4434 14.94259111 44474 SAKHACUBE-CHOLBON 1 67290U 25313AU 26262.47528959 .00006672 00000-0 25897-3 0 9990 2 67290 97.3858 336.3909 0009481 32.4435 327.7385 15.26386511 40357 RS95S (QMR-KWT-2) 1 67291U 25313AV 26261.43871697 .00010335 00000-0 37511-3 0 9993 2 67291 97.3844 335.7841 0008824 33.4783 326.7013 15.28472222 40228 Ten-Koh2 1 68261U 25241B 26263.46677853 .00004081 00000-0 17505-3 0 9996 2 68261 51.6567 225.7887 0008222 102.0552 258.1348 15.24919814 29447 JACK-002 1 68417U 26067B 26263.62226165 .00004939 00000-0 22975-3 0 9999 2 68417 97.4672 221.1560 0001203 16.7091 343.4184 15.20414405 26449 DISCO 2 1 68431U 26067R 26263.39253516 .00005325 00000-0 24802-3 0 9990 2 68431 97.4705 220.9305 0003521 55.0440 305.1126 15.20328137 26408 HADES-SA (SpinnyONE) 1 68446U 26067AG 26263.37896080 .00013808 00000-0 60669-3 0 9999 2 68446 97.4489 220.4994 0009042 98.8417 261.3843 15.21992645 26394 PARUS-6U1 1 68456U 26067AS 26263.31076197 .00003884 00000-0 19218-3 0 9990 2 68456 97.4659 220.3222 0007462 92.4979 267.7109 15.18371679 26360 SAL-E 1 68458U 26067AU 26263.41224121 .00005295 00000-0 25654-3 0 9994 2 68458 97.4579 220.3219 0007741 98.9163 261.2948 15.18942988 26384 FSI-SAT 2 1 68792U 26088A 26263.35857254 .00003507 00000-0 23475-3 0 9993 2 68792 97.5199 50.3499 0015100 138.5731 221.6645 15.07473881 22621 OrigamiSat 2 1 68795U 26088D 26263.60573046 .00008722 00000-0 52951-3 0 9993 2 68795 97.5188 51.0882 0015717 110.2210 250.0712 15.10640561 22692 ARICA 2 1 68796U 26088E 26263.39923905 .00002587 00000-0 16676-3 0 9990 2 68796 97.5192 50.7369 0016913 110.5785 249.7261 15.09074875 22650 WASEDA-SAT-ZERO-II 1 68797U 26088F 26262.64357720 .00004134 00000-0 26074-3 0 9997 2 68797 97.5183 50.0502 0016405 112.7189 247.5777 15.09553759 22540 MANGARO-II-Piscus 1 68798U 26088G 26260.91223527 .00002637 00000-0 16847-3 0 9996 2 68798 97.5200 48.3924 0020044 121.2776 239.0419 15.09344135 22286 CO-128 1 69912U 26156AV 26263.24369358 .00000823 00000-0 88887-4 0 9992 2 69912 97.7472 162.3555 0000941 236.6683 123.4445 14.90954639 11162 MARINA 1 69920U 26156BD 26263.45252805 .00001336 00000-0 13668-3 0 9996 2 69920 97.7439 162.6688 0005843 265.8739 94.1812 14.92179346 11209 IO-86 1 40931U 26199.45381863 .00000000 00000-0 77536-4 0 07 2 40931 6.0006 322.6653 0012733 338.8432 273.6875 14.79294310 03 LILIUM-4 1 71922C 26067AC 26089.50133053 -.00014632 00000 0 -74472-3 0 04 2 71922 97.4497 49.1617 0004341 5.9603 355.7042 15.16896692 16